AirNav   Air Wisconsin Up To $57,000 Bonus
 
 1453 users online  

KLHV William T Piper Memorial Airport
Lock Haven, Pennsylvania, USA

GOING TO LOCK HAVEN?


FAA INFORMATION EFFECTIVE 10 OCTOBER 2019

Location

FAA Identifier: LHV
Lat/Long: 41-08-08.8000N 077-25-20.3000W
41-08.146667N 077-25.338333W
41.1357778,-77.4223056
(estimated)
Elevation: 555.5 ft. / 169.3 m (surveyed)
Variation: 11W (2005)
From city: 2 miles E of LOCK HAVEN, PA
Time zone: UTC -4 (UTC -5 during Standard Time)
Zip code: 17745

Airport Operations

Airport use: Open to the public
Activation date: 05/1938
Control tower: no
ARTCC: NEW YORK CENTER
FSS: WILLIAMSPORT FLIGHT SERVICE STATION
NOTAMs facility: IPT (NOTAM-D service available)
Attendance: MON-FRI 0900-1700, ALL SAT-SUN 1000-1600
Wind indicator: lighted
Segmented circle: yes
Lights: ACTVT PAPI RWY 09L & 27R; MIRL RWY 09L/27R - CTAF.
Beacon: white-green (lighted land airport)
Operates sunset to sunrise.

Airport Communications

CTAF/UNICOM: 122.8
  • APCH/DEP SVC PRVDD BY NEW YORK ARTCC ON FREQS 134.8/338.3 (PHILIPSBURG RCAG).

Nearby radio navigation aids

VOR radial/distance  VOR name  Freq  Var
PSBr073/29.0PHILIPSBURG VORTAC115.5010W
FQMr256/31.6WILLIAMSPORT VOR/DME114.4009W
SEGr318/32.0SELINSGROVE VOR/DME110.4008W
ETGr108/32.9KEATING VORTAC116.0010W
SLTr141/33.5SLATE RUN VORTAC113.9008W
SFKr188/33.6STONYFORK VOR/DME108.6008W
MIPr290/34.9MILTON VORTAC109.2009W

Airport Services

Fuel available: 100LL JET-A
FUEL AVBL AFT HRS BY PRIOR REQUEST; CALL 570-748-9267 OR 570-295-7952 OR 800-224-7511.
Parking: hangars and tiedowns
Airframe service: MAJOR
Powerplant service: MAJOR
Bottled oxygen: NONE
Bulk oxygen: NONE

Runway Information

Runway 9L/27R

Dimensions: 3799 x 75 ft. / 1158 x 23 m
Surface: asphalt, in good condition
Weight bearing capacity: 
Single wheel: 12.5
Runway edge lights: medium intensity
Runway edge markings: MARKINGS EXTREMELY FADED.
RUNWAY 9L  RUNWAY 27R
Latitude: 41-08.115912N41-08.198920N
Longitude: 077-25.752380W077-24.932165W
Elevation: 554.7 ft.555.0 ft.
Traffic pattern: leftright
Runway heading: 093 magnetic, 082 true273 magnetic, 262 true
Displaced threshold: no465 ft.
Markings: nonprecision, in poor conditionnonprecision, in poor condition
Visual slope indicator: 2-light PAPI on left (3.50 degrees glide path)
UNUSBL BYD 5 DEGS LEFT OF CNTRLN.
2-light PAPI on left (4.00 degrees glide path)
UNUSBL BYD 6 DEGS LEFT & 8 DEGS RIGHT OF CNTRLN.
Runway end identifier lights: noyes
Touchdown point: yes, no lightsyes, no lights
Obstructions: 54 ft. trees, 964 ft. from runway, 97 ft. left of centerline, 14:1 slope to clear28 ft. trees, 215 ft. from runway, 124 ft. right of centerline, 1:1 slope to clear
14 FT BERM 84 FT OUT ON CNTRLN RWY 27R.

Runway 9R/27L

Dimensions: 2179 x 100 ft. / 664 x 30 m
Surface: turf, in fair condition
Runway edge markings: WHITE CONES MARK RWY EDGE AND THLD.
RUNWAY 9R  RUNWAY 27L
Latitude: 41-08.106165N41-08.153382N
Longitude: 077-25.568153W077-25.097708W
Elevation: 553.3 ft.553.8 ft.
Traffic pattern: leftright
Runway heading: 093 magnetic, 082 true273 magnetic, 262 true
Markings: NSTD, in good conditionNSTD, in good condition
Touchdown point: yes, no lightsyes, no lights

Airport Ownership and Management from official FAA records

Ownership: Publicly-owned
Owner: CITY OF LOCK HAVEN
20 EAST CHURCH STREET
LOCK HAVEN, PA 17745
Phone 570-893-5610
Manager: EDWARD WATSON
353 PROCTOR STREET
LOCK HAVEN, PA 17745
Phone 570-748-5123

Airport Operational Statistics

Aircraft based on the field: 33
Single engine airplanes: 31
Multi engine airplanes: 1
Ultralights: 1
    
Aircraft operations: avg 48/day *
63% local general aviation
34% transient general aviation
1% military
1% air taxi
* for 12-month period ending 06 December 2018

Additional Remarks

LOCAL WX ON CTAF (3 CLICKS).
BIRD ACTIVITY ON & INVOF ARPT.
NO SIMULTANEOUS RWY OPS.
FOR CD CTC NEW YORK ARTCC AT 631-468-1425.

Instrument Procedures

NOTE: All procedures below are presented as PDF files. If you need a reader for these files, you should download the free Adobe Reader.

NOT FOR NAVIGATION. Please procure official charts for flight.
FAA instrument procedures published for use from 10 October 2019 at 0901Z to 17 November 2019 at 0900Z.

 
IAPs - Instrument Approach Procedures
RNAV (GPS)-A **CHANGED**   download (197KB)
NOTE: Special Take-Off Minimums/Departure Procedures apply   download (208KB)

Other nearby airports with instrument procedures:

N96 - Bellefonte Airport (23 nm SW)
KIPT - Williamsport Regional Airport (23 nm E)
KUNV - University Park Airport (26 nm SW)
KRVL - Mifflin County Airport (29 nm S)
KSEG - Penn Valley Airport (32 nm SE)
 
Loc | Ops | Rwys | IFR | FBO | Links
Com | Nav | Svcs | Stats | Notes
Area around KLHV (William T Piper Memorial Airport)
 
Road maps at: MapQuest Bing Google
 
Aerial photo
WARNING: Photo may not be current or correct
Aerial photo of KLHV (William T Piper Memorial Airport)
Photo courtesy of AirNav, LLC
Photo taken 21-Jul-2010

Do you have a better or more recent aerial photo of William T Piper Memorial Airport that you would like to share? If so, please send us your photo.

 
Sectional chart

 
Airport distance calculator
Flying to William T Piper Memorial Airport? Find the distance to fly.

From to KLHV

Sunrise and sunset
Times for 18-Oct-2019
 Local
(UTC-4)
 Zulu
(UTC)
Morning civil twilight06:5810:58
Sunrise07:2611:26
Sunset18:2422:24
Evening civil twilight18:5222:52

Current date and time
Zulu (UTC)  18-Oct-2019 15:50:05
Local (UTC-4)  18-Oct-2019 11:50:05
 
METAR
KIPT 
24nm E 
181454Z 32012KT 10SM BKN044 12/01 A2994 RMK AO2 SLP139 T01220006 51014
KUNV 
25nm SW 
181453Z 35011G15KT 10SM BKN035 09/01 A2999
KRVL 
29nm S 
181535Z AUTO 28012G21KT 10SM CLR 12/02 A2997 RMK AO2
KSEG 
32nm SE 
181453Z AUTO 32011G20KT 10SM SCT041 12/02 A2995 RMK AO2 SLP142 T01170022 50012
KN38 
36nm N 
181535Z AUTO 31009G16KT 260V350 10SM OVC026 07/01 A2995 RMK AO2
KFIG 
45nm W 
181454Z AUTO 32010KT 10SM OVC033 08/01 A3001 RMK AO2 SLP169 T00780011 51016
TAF
KIPT 
24nm E 
181136Z 1812/1912 29011KT P6SM BKN035 FM182000 29008G15KT P6SM SCT040 FM190000 VRB03KT P6SM SKC FM190800 00000KT P6SM VCFG SKC FM191030 00000KT 1/2SM FG BKN003
KUNV 
25nm SW 
181136Z 1812/1912 30008KT P6SM BKN025 FM181300 30008KT P6SM SCT025 BKN035 FM181900 30009KT P6SM FEW045 FM190000 VRB03KT P6SM SKC FM190600 00000KT P6SM VCFG SKC FM190900 00000KT 1/2SM FG BKN003
NOTAMs
Click for the latest NOTAMs
NOTAMs are issued by the DoD/FAA and will open in a separate window not controlled by AirNav.

 

 
 

FBO, Fuel Providers, and Aircraft Ground Support

  
 Business Name 
 
 Contact 
 
 Services / Description 
 
Fuel Prices
 
Comments
  
William T. Piper Memorial Airport 570-748-5123
570-971-7545
[web site]
[email]
Aviation fuel, Aircraft parking (ramp or tiedown), Hangars, Hangar leasing / sales, Passenger terminal and lounge, Aircraft maintenance, ...

More info about William T. Piper Memorial Airport
independent
100LL Jet A
FS $5.40 $4.25 
 Updated 09-Oct-2019
 
   11 read write
FS=Full service
Update Fuel Prices
 

Would you like to see your business listed on this page?

 If your business provides an interesting product or service to pilots, flight crews, aircraft, or users of the William T Piper Memorial Airport, you should consider listing it here.  To start the listing process, click on the button below
 
Add a business
 

Other Pages about William T Piper Memorial Airport

www.piperairport.com
 
Update a link
 
Copyright © AirNav, LLC. All rights reserved. Privacy Policy  Contact